Time,TemperatureF,DewpointF,PressureIn,WindDirection,WindDirectionDegrees,WindSpeedMPH,WindSpeedGustMPH,Humidity,HourlyPrecipIn,Conditions,Clouds,dailyrainin,SoftwareType,DateUTC
2015-03-05 00:13:00,19.0,18.0,29.80,North,0,0.0,0.0,97,0.00,,,0.64,,2015-03-05 05:13:00,
2015-03-05 00:23:00,19.0,19.0,29.80,North,0,0.0,0.0,98,0.12,,,0.74,,2015-03-05 05:23:00,
2015-03-05 00:43:00,18.0,18.0,29.79,North,0,0.0,0.0,99,0.13,,,0.74,,2015-03-05 05:43:00,
2015-03-05 00:52:00,18.0,18.0,29.78,North,0,0.0,0.0,99,0.13,,,0.73,,2015-03-05 05:52:00,
2015-03-05 01:12:00,18.0,18.0,29.78,North,0,0.0,0.0,98,0.15,,,0.73,,2015-03-05 06:12:00,
2015-03-05 01:23:00,17.0,17.0,29.78,North,0,0.0,0.0,99,0.05,,,0.72,,2015-03-05 06:23:00,
2015-03-05 01:42:00,18.0,18.0,29.80,North,0,0.0,0.0,99,0.04,,,0.71,,2015-03-05 06:42:00,
2015-03-05 01:52:00,17.0,17.0,29.80,North,0,0.0,0.0,99,0.04,,,0.69,,2015-03-05 06:52:00,
2015-03-05 02:12:00,17.0,17.0,29.80,North,0,0.0,0.0,99,0.01,,,0.66,,2015-03-05 07:12:00,
2015-03-05 02:23:00,17.0,17.0,29.81,North,0,0.0,0.0,99,0.00,,,0.64,,2015-03-05 07:23:00,
2015-03-05 02:42:00,17.0,17.0,29.80,North,0,0.0,0.0,99,0.00,,,0.61,,2015-03-05 07:42:00,
2015-03-05 02:52:00,17.0,17.0,29.80,North,0,0.0,0.0,99,0.00,,,0.58,,2015-03-05 07:52:00,
2015-03-05 03:12:00,17.0,16.0,29.81,North,0,0.0,0.0,96,0.00,,,0.57,,2015-03-05 08:12:00,
2015-03-05 03:22:00,16.0,15.0,29.81,North,0,0.0,0.0,94,0.00,,,0.56,,2015-03-05 08:22:00,
2015-03-05 03:42:00,16.0,15.0,29.83,North,0,0.0,0.0,95,0.00,,,0.52,,2015-03-05 08:42:00,
2015-03-05 03:52:00,16.0,15.0,29.82,North,0,0.0,0.0,95,0.00,,,0.51,,2015-03-05 08:52:00,
2015-03-05 04:11:00,15.0,14.0,29.82,North,0,0.0,0.0,96,0.00,,,0.47,,2015-03-05 09:11:00,
2015-03-05 04:22:00,14.0,14.0,29.82,North,0,0.0,0.0,99,0.00,,,0.45,,2015-03-05 09:22:00,
2015-03-05 04:43:00,14.0,14.0,29.81,North,0,0.0,0.0,99,0.00,,,0.40,,2015-03-05 09:43:00,
2015-03-05 04:53:00,14.0,14.0,29.82,North,0,0.0,0.0,99,0.00,,,0.35,,2015-03-05 09:53:00,
2015-03-05 05:13:00,13.0,13.0,29.83,North,0,0.0,0.0,99,0.00,,,0.31,,2015-03-05 10:13:00,
2015-03-05 05:23:00,14.0,14.0,29.84,North,0,0.0,0.0,99,0.00,,,0.28,,2015-03-05 10:23:00,
2015-03-05 05:43:00,14.0,14.0,29.85,North,0,0.0,0.0,99,0.00,,,0.25,,2015-03-05 10:43:00,
2015-03-05 05:53:00,14.0,14.0,29.84,North,0,0.0,0.0,99,0.00,,,0.24,,2015-03-05 10:53:00,
2015-03-05 06:12:00,14.0,14.0,29.85,North,0,0.0,0.0,99,0.00,,,0.22,,2015-03-05 11:12:00,
2015-03-05 06:23:00,14.0,14.0,29.84,North,0,0.0,0.0,99,0.00,,,0.21,,2015-03-05 11:23:00,
2015-03-05 06:42:00,13.0,13.0,29.85,North,0,0.0,0.0,99,0.00,,,0.21,,2015-03-05 11:42:00,
2015-03-05 06:52:00,13.0,13.0,29.86,North,0,0.0,0.0,99,0.00,,,0.21,,2015-03-05 11:52:00,
2015-03-05 07:13:00,13.0,13.0,29.85,North,0,0.0,0.0,99,0.00,,,0.20,,2015-03-05 12:13:00,
2015-03-05 07:23:00,13.0,13.0,29.86,North,0,0.0,0.0,99,0.00,,,0.20,,2015-03-05 12:23:00,
2015-03-05 07:42:00,13.0,13.0,29.87,North,0,0.0,0.0,99,0.00,,,0.20,,2015-03-05 12:42:00,
2015-03-05 07:53:00,13.0,13.0,29.86,North,0,0.0,0.0,99,0.00,,,0.20,,2015-03-05 12:53:00,
2015-03-05 08:12:00,14.0,14.0,29.87,North,0,0.0,0.0,99,0.00,,,0.19,,2015-03-05 13:12:00,
2015-03-05 08:22:00,14.0,14.0,29.87,North,0,0.0,0.0,99,0.00,,,0.19,,2015-03-05 13:22:00,
2015-03-05 08:43:00,15.0,15.0,29.87,North,0,0.0,0.0,99,0.00,,,0.19,,2015-03-05 13:43:00,
2015-03-05 08:52:00,15.0,15.0,29.90,North,0,0.0,0.0,99,0.00,,,0.19,,2015-03-05 13:52:00,
2015-03-05 09:11:00,16.0,16.0,29.91,North,0,0.0,0.0,99,0.00,,,0.19,,2015-03-05 14:11:00,
2015-03-05 09:22:00,17.0,17.0,29.93,North,0,0.0,0.0,99,0.00,,,0.19,,2015-03-05 14:22:00,
2015-03-05 09:42:00,16.0,16.0,29.92,North,0,0.0,0.0,99,0.00,,,0.19,,2015-03-05 14:42:00,
2015-03-05 09:53:00,16.0,11.0,29.91,North,0,0.0,0.0,79,0.00,,,0.19,,2015-03-05 14:53:00,
2015-03-05 10:12:00,17.0,10.0,29.88,North,0,0.0,0.0,72,0.00,,,0.19,,2015-03-05 15:12:00,
2015-03-05 10:22:00,18.0,7.0,29.91,North,0,0.0,0.0,62,0.00,,,0.19,,2015-03-05 15:22:00,
2015-03-05 10:43:00,18.0,6.0,29.92,North,0,0.0,0.0,60,0.00,,,0.19,,2015-03-05 15:43:00,
2015-03-05 10:54:00,18.0,5.0,29.91,North,0,0.0,0.0,57,0.00,,,0.19,,2015-03-05 15:54:00,
2015-03-05 11:44:00,21.0,4.0,29.95,North,0,0.0,0.0,46,0.00,,,0.19,,2015-03-05 16:44:00,
2015-03-05 12:12:00,23.0,4.0,29.93,North,0,0.0,0.0,43,0.00,,,0.19,,2015-03-05 17:12:00,
2015-03-05 12:23:00,23.0,3.0,29.94,North,0,0.0,0.0,42,0.00,,,0.19,,2015-03-05 17:23:00,
2015-03-05 12:43:00,23.0,4.0,29.93,North,0,0.0,0.0,44,0.00,,,0.18,,2015-03-05 17:43:00,
2015-03-05 12:53:00,25.0,5.0,29.96,North,0,0.0,0.0,42,0.00,,,0.18,,2015-03-05 17:53:00,
2015-03-05 13:23:00,25.0,2.0,29.96,North,0,0.0,0.0,37,0.00,,,0.18,,2015-03-05 18:23:00,
2015-03-05 13:53:00,26.0,2.0,29.95,North,0,0.0,0.0,35,0.00,,,0.18,,2015-03-05 18:53:00,
2015-03-05 14:12:00,25.0,3.0,29.95,North,0,0.0,0.0,38,0.00,,,0.18,,2015-03-05 19:12:00,
2015-03-05 14:23:00,29.0,3.0,29.95,NW,314,2.0,8.0,32,0.00,,,0.18,,2015-03-05 19:23:00,
2015-03-05 15:22:00,31.0,8.0,29.95,NW,314,4.0,11.0,37,0.00,,,0.17,,2015-03-05 20:22:00,